Location: Unspecified
(0.0000°N, 0.0000°E)
Time: 12:55:15
(UTC+00:00)

Altair - Visible Passes

Search period start: 01 August 2021 00:00
Search period end: 11 August 2021 00:00
Orbit: 1502 x 1682 km, 47.2° (Epoch: 31 July)

Date Brightness Start Highest point End Pass type
(mag) Time Alt. Az. Time Alt. Az. Time Alt. Az.
02 Aug 9.4 20:46:15 10° SSW 20:46:58 12° SSW 20:46:58 12° SSW visible
03 Aug 9.0 20:21:19 10° SSW 20:23:59 18° S 20:23:59 18° S visible
04 Aug 8.7 19:56:25 10° S 20:01:12 24° SSE 20:01:12 24° SSE visible
05 Aug 8.4 19:31:34 10° S 19:38:37 25° SE 19:38:37 25° SE visible
05 Aug 9.2 21:34:21 10° SW 21:36:45 20° SW 21:36:45 20° SW visible
06 Aug 8.5 19:06:48 10° S 19:14:14 23° SE 19:16:17 21° ESE visible
06 Aug 8.5 21:09:04 10° SW 21:14:26 37° SW 21:14:26 37° SW visible
07 Aug 8.6 18:42:05 10° S 18:48:57 20° SE 18:54:16 13° E visible
07 Aug 7.6 20:43:49 10° SW 20:52:27 69° SW 20:52:27 69° SW visible
08 Aug 7.4 20:18:37 10° SW 20:28:46 86° SE 20:30:55 62° NE visible
08 Aug 9.6 22:27:08 10° W 22:29:09 14° WNW 22:29:09 14° WNW visible
09 Aug 7.4 19:53:25 10° SW 20:03:35 78° SE 20:10:08 25° NE visible
09 Aug 9.2 22:01:12 10° W 22:08:20 22° NW 22:08:27 22° NW visible
10 Aug 7.5 19:28:16 10° SSW 19:38:23 71° SE 19:48:12 10° NE visible
10 Aug 9.1 21:35:24 10° W 21:43:06 25° NW 21:50:39 10° N visible
